sat.trackr.live / text

‹ back to catalog

STARLINK-37447

NORAD 68810 · 2026-089J

PAYLOAD ACTIVE UNKNOWN

§ Identity

Operator
Country
US
Launch date
2026-04-23
Launch site
AFWTR
Launch vehicle
Mass (kg)
RCS (m²)

Purposes: comms

External: N2YO · Heavens-Above · Gunter

§ Orbital elements

Epoch: 2026-09-19T19:48:33.677856Z

Period
93.91 min
Inclination
97.2852°
Eccentricity
0.0002520
Mean motion
15.33447555 rev/d
Perigee alt
463.8 km
Apogee alt
467.3 km
Semi-major
6,843.7 km
B*
4.2901e-4
RAAN
108.5682°
Arg perigee
83.3210°
Mean anomaly
276.8319°
Rev number
2,315

§ Raw data

STARLINK-374471 68810U 26089J   26262.82538979  .00013802  00000+0  42901-3 0  99992 68810  97.2852 108.5682 0002520  83.3210 276.8319 15.33447555 23153

JSON: /api/v1/satellites/68810 · /tle

For live sub-satellite position, see the globe view (requires WebGL).

§ Visibility from observer

Set your observer location to see the next 7 days of passes ≥ 10°. The values pass through the URL so the page stays shareable.

No JS? Fill the form by hand. The geolocation button needs JavaScript.